Location: Asheville, NC
(35.6000°N, 82.5500°W)
Time: 16:23:09
(UTC-04:00)

ISS - Pass Details

Date: 10 May 2026
Orbit: 414 x 424 km, 51.6° (Epoch: 15 May)

Event Time Altitude Azimuth Distance (km) Brightness Sun altitude
Rises 21:02:02 0° 237° (WSW) 2,333 0.4 -7.7°
Reaches altitude 10° 21:04:09 10° 242° (WSW) 1,474 -0.5 -8.1°
Maximum altitude 21:07:24 54° 321° (NW) 505 -2.9 -8.7°
Drops below altitude 10° 21:10:40 10° 40° (NE) 1,482 -1.1 -9.3°
Sets 21:12:47 0° 45° (NE) 2,348 -0.1 -9.6°
